Погода в Устье

Россия / Воронежская область     51°33′37″N   39°01′15″E
темп.,
°C
ветер,
м/с
пор.,
м/с
влажн.,
%
обл.,
%
осадки,
мм/ч
давл.,
гПа
погр.,
м
15 мая, сб
сб1500:00+17ююв41391100 0.0 1010254
03:00+16ююз359499 0.0 1010109
06:00+16ююз2388100 0.0 101168
09:00+20ююз5869100 0.0 1012473
12:00+22юз46534 0.0 1012929
15:00+23ююз575099 0.0 10121697
18:00+21ююз47671 0.1 1013304
21:00+17ююз22760 0.1 101416
16 мая, вс
вс1600:00+15юз22775 0.0 101411
03:00+14з218116 0.0 101411
06:00+15вюв11801 0.0 101516
09:00+20в22661 0.0 1015342
12:00+23вюв23548 0.0 10151404
15:00+25всв234731 0.0 10131722
18:00+24св346396 0.0 1012144
21:00+19всв338361 0.1 101333
17 мая, пн
пн1700:00+16в338579 0.0 101230
03:00+15всв367961 0.0 101189
06:00+15в387812 0.0 1011172
09:00+21вюв613585 0.0 1011506
12:00+26юв713509 0.0 10101461
15:00+26юв814495 0.0 10091651
18:00+24юв6125910 0.0 1008404
21:00+19вюв5137413 0.0 1008222
18 мая, вт
вт1800:00+16юв49738 0.0 1008151
03:00+15юв3875100 0.0 1007143
06:00+15юв378361 0.0 1008163
09:00+20ю577191 0.0 1008666
12:00+22ю5659100 0.0 10081153
15:00+22ююз6666100 0.0 10081122
18:00+21ю476799 0.0 10081029
21:00+17ююз498474 0.0 1008170
19 мая, ср
ср1900:00+15ю388998 0.0 1008163
03:00+14ююв379374 0.1 1008129
06:00+14ю51095100 1.6 1008475
09:00+16ююз687888 2.1 1009883
12:00+16зюз588096 0.1 1010819
15:00+19зюз7864100 0.3 10101590
18:00+19юз3567100 0.1 1010945
21:00+15сз1175100 0.1 101111